Sigfox identifier Datetime Temperature Humidity SNR
003B74C1 2018-10-09 09:14:49 21.4 39 13
003B74C1 2018-10-09 08:11:24 21.4 39 13
003B74C1 2018-10-09 07:08:00 21.4 38 13.1
003B74C1 2018-10-09 06:04:35 21.4 38 13
003B74C1 2018-10-09 05:01:11 21.4 38 12.8
003B74C1 2018-10-09 01:51:03 21.4 37 13
003B74C1 2018-10-09 00:47:42 21.4 37 13.3
003B74C1 2018-10-08 22:40:54 21.4 37 13.3
003B74C1 2018-10-08 21:37:32 21.4 37 13.2
003B74C1 2018-10-08 20:34:04 21.4 37 13.2
003B74C1 2018-10-08 19:30:39 21.4 37 12.7
003B74C1 2018-10-08 18:27:17 21.4 36 12.8
003B74C1 2018-10-08 16:20:27 21.4 36 17.7
003B74C1 2018-10-08 15:17:05 21.3 36 17.6
003B74C1 2018-10-08 14:13:40 21.2 36 17.5
003B74C1 2018-10-08 12:06:57 21.2 36 17.5
003B74C1 2018-10-08 11:03:34 21.2 36 19.8
003B74C1 2018-10-08 10:00:07 21.1 36 19.8
003B74C1 2018-10-08 08:56:48 21 36 19.9
003B74C1 2018-10-08 06:49:57 21.1 36 19.8
003B74C1 2018-10-08 05:46:32 21.1 36 19.8
003B74C1 2018-10-08 04:43:10 21 36 19.8
003B74C1 2018-10-08 03:39:46 21.1 37 19.8
003B74C1 2018-10-08 02:36:21 21.2 37 19.8
003B74C1 2018-10-08 01:32:59 21.2 37 19.8
003B74C1 2018-10-08 00:29:32 21.2 37 19.8
003B74C1 2018-10-07 23:26:07 21.2 37 19.8
003B74C1 2018-10-07 22:22:38 21.2 37 19.9
003B74C1 2018-10-07 21:19:12 21.2 38 20
003B74C1 2018-10-07 20:15:49 21.2 38 20
003B74C1 2018-10-07 19:12:25 21.2 38 19.9
003B74C1 2018-10-07 18:08:59 21.2 38 19.9
003B74C1 2018-10-07 17:05:32 21.2 38 19.8
003B74C1 2018-10-07 16:02:02 21.2 38 19.8
003B74C1 2018-10-07 14:58:37 21.2 38 19.8
003B74C1 2018-10-07 13:55:08 21.2 38 19.8
003B74C1 2018-10-07 12:51:42 21.2 38 19.8
003B74C1 2018-10-07 11:48:13 21.2 38 17.4
003B74C1 2018-10-07 09:41:16 21.2 38 17.5
003B74C1 2018-10-07 08:37:51 21.3 38 17.5
003B74C1 2018-10-07 07:34:24 21.4 38 17.6
003B74C1 2018-10-07 06:30:59 21.3 38 17.6
003B74C1 2018-10-07 05:27:35 21.3 38 17.7
003B74C1 2018-10-07 04:24:09 21.4 38 17.7
003B74C1 2018-10-07 03:20:45 21.4 39 17.7
003B74C1 2018-10-07 02:17:19 21.4 39 17.7
003B74C1 2018-10-07 00:10:29 21.4 39 17.7
003B74C1 2018-10-06 23:07:02 21.4 39 17.8
003B74C1 2018-10-06 22:03:37 21.4 39 17.9
003B74C1 2018-10-06 21:00:13 21.4 39 17.9
003B74C1 2018-10-06 19:56:46 21.4 39 18
003B74C1 2018-10-06 18:53:24 21.4 39 17.8
003B74C1 2018-10-06 17:50:01 21.4 39 17.8
003B74C1 2018-10-06 16:46:37 21.4 39 17.7
003B74C1 2018-10-06 15:43:12 21.4 39 17.7
003B74C1 2018-10-06 14:39:49 21.4 39 17.7
003B74C1 2018-10-06 13:36:26 21.4 39 17.8
003B74C1 2018-10-06 12:32:56 21.4 39 17.8
003B74C1 2018-10-06 11:29:31 21.4 39 17.8
003B74C1 2018-10-06 10:26:07 21.4 39 17.9
003B74C1 2018-10-06 08:19:21 21.5 39 17.9
003B74C1 2018-10-06 07:15:56 21.6 39 18
003B74C1 2018-10-06 06:12:32 21.6 39 18
003B74C1 2018-10-06 05:09:03 21.6 39 18
003B74C1 2018-10-06 04:05:37 21.6 39 18
003B74C1 2018-10-06 03:02:11 21.6 39 17.9
003B74C1 2018-10-06 01:58:44 21.6 40 13.6
003B74C1 2018-10-06 00:55:15 21.6 40 13.6
003B74C1 2018-10-05 23:51:49 21.6 40 13.5
003B74C1 2018-10-05 22:48:21 21.8 40 13.6
003B74C1 2018-10-05 21:44:56 21.8 39 14
003B74C1 2018-10-05 20:41:30 21.8 39 14.2
003B74C1 2018-10-05 19:38:07 21.8 39 13.9
003B74C1 2018-10-05 18:34:41 21.8 39 13.9
003B74C1 2018-10-05 17:31:15 21.8 38 14.2
003B74C1 2018-10-05 16:27:57 21.8 38 14.1
003B74C1 2018-10-05 15:24:33 21.8 37 14.8
003B74C1 2018-10-05 14:21:07 21.6 37 15
003B74C1 2018-10-05 13:17:42 21.6 36 15
003B74C1 2018-10-05 12:14:10 21.6 36 18.5
003B74C1 2018-10-05 09:04:04 21.2 33 18.4
003B74C1 2018-10-05 06:57:13 21.2 32 18.4
003B74C1 2018-10-05 04:50:23 21.2 32 18.4
003B74C1 2018-10-05 02:43:28 21.3 33 18.6
003B74C1 2018-10-05 01:40:00 21.4 33 18.9
003B74C1 2018-10-05 00:36:34 21.4 33 18.8
003B74C1 2018-10-04 23:33:05 21.4 33 18.8
003B74C1 2018-10-04 22:29:34 21.4 33 19
003B74C1 2018-10-04 21:26:09 21.4 33 18.9
003B74C1 2018-10-04 20:22:41 21.4 33 19.5
003B74C1 2018-10-04 19:19:14 21.4 33 19.5
003B74C1 2018-10-04 18:15:48 21.4 33 19.6
003B74C1 2018-10-04 17:12:22 21.3 34 19.8
003B74C1 2018-10-04 16:08:49 21.2 34 19.8
003B74C1 2018-10-04 15:05:25 21.2 33 19.7
003B74C1 2018-10-04 14:01:54 21.1 34 19.7
003B74C1 2018-10-04 12:58:28 21 34 19.6
003B74C1 2018-10-04 11:55:00 21 35 19.6
003B74C1 2018-10-04 10:51:38 20.9 35 19.5
003B74C1 2018-10-04 09:48:08 20.7 36 19.5
003B74C1 2018-10-04 08:44:42 20.7 36 19.5
003B74C1 2018-10-04 06:37:52 20.7 38 19.2
003B74C1 2018-10-04 05:34:26 20.7 38 19.2
003B74C1 2018-10-04 04:31:00 20.8 39 19.1
003B74C1 2018-10-04 03:27:35 20.9 39 16.2
003B74C1 2018-10-04 02:24:10 20.9 40 16.3
003B74C1 2018-10-04 01:20:45 21 40 16.4
003B74C1 2018-10-04 00:17:18 21 40 16.3
003B74C1 2018-10-03 23:13:52 21 41 16
003B74C1 2018-10-03 22:10:24 21 41 15.5
003B74C1 2018-10-03 21:07:00 21 41 15.5
003B74C1 2018-10-03 20:03:32 21 41 15.7
003B74C1 2018-10-03 19:00:03 21 41 15.4
003B74C1 2018-10-03 17:56:38 21 42 15.4
003B74C1 2018-10-03 16:53:08 21.1 42 13.6
003B74C1 2018-10-03 15:49:39 21 42 13.6
003B74C1 2018-10-03 14:46:13 21 42 13.3
003B74C1 2018-10-03 13:42:44 21 42 14
003B74C1 2018-10-03 11:35:52 20.9 41 15.4
003B74C1 2018-10-03 10:32:27 20.7 41 16.4
003B74C1 2018-10-03 09:29:02 20.7 41 16.5
003B74C1 2018-10-03 08:25:34 20.5 41 17.2
003B74C1 2018-10-03 07:22:05 20.5 41 17.4
003B74C1 2018-10-03 06:18:39 20.5 41 18
003B74C1 2018-10-03 05:15:17 20.5 41 18.7
003B74C1 2018-10-03 04:11:49 20.6 41 18.9
003B74C1 2018-10-03 03:08:29 20.6 41 19
003B74C1 2018-10-02 22:54:50 20.7 41 19
003B74C1 2018-10-02 21:51:26 20.7 41 19
003B74C1 2018-10-02 19:44:36 20.7 41 19.1
003B74C1 2018-10-02 18:41:11 20.7 41 19
003B74C1 2018-10-02 17:37:46 20.7 42 19.1
003B74C1 2018-10-02 16:34:21 20.7 41 19.3
003B74C1 2018-10-02 14:27:28 20.7 41 19.4
003B74C1 2018-10-02 13:24:03 20.7 42 19.6
003B74C1 2018-10-02 12:20:40 21 43 19.8
003B74C1 2018-10-02 11:17:12 20.9 44 19.9
003B74C1 2018-10-02 10:13:46 20.7 43 20.1
003B74C1 2018-10-02 09:10:21 20.6 43 20.3
003B74C1 2018-10-02 08:06:55 20.5 41 20.5
003B74C1 2018-10-02 07:03:28 20.5 43 20.8
003B74C1 2018-10-02 06:00:03 20.6 43 21
003B74C1 2018-10-02 04:56:35 20.7 43 20.8
003B74C1 2018-10-02 03:53:07 20.7 43 20.2
003B74C1 2018-10-02 02:49:39 20.7 43 19.8
003B74C1 2018-10-02 01:46:13 20.7 43 20
003B74C1 2018-10-02 00:42:47 20.7 43 19.3
003B74C1 2018-10-01 23:39:20 20.7 43 19.5
003B74C1 2018-10-01 22:35:55 20.7 43 18.5
003B74C1 2018-10-01 21:32:31 20.7 43 15.4
003B74C1 2018-10-01 20:29:04 20.7 43 14.3
003B74C1 2018-10-01 19:25:40 20.7 43 11.1
003B74C1 2018-10-01 18:22:15 20.7 43 11.1
003B74C1 2018-10-01 17:18:50 20.5 43 12.3
003B74C1 2018-10-01 16:15:26 19.9 46 9.6